Tracking 19717 objects as of 25-Jun-2019
HD Live streaming from Space Station
objects crossing your sky now

SL-14 R/B

Track SL-14 R/B now!
10-day predictions


NORAD ID: 16409
Int'l Code: 1985-119B
Perigee: 942.2 km
Apogee: 965.9 km
Inclination: 82.5 °
Period: 104.0 minutes
Semi major axis: 7325 km
RCS: 5.0426 m2 (large)
Launch date: December 26, 1985
Source: Commonwealth of Independent States (former USSR) (CIS)
Launch site: PLESETSK MISSILE AND SPACE COMPLEX (PKMTR)

Note: This is a ROCKET BODY
aabbcc
Your satellite tracking list
Your tracking list is empty




NASA's NSSDC Master Catalog

Two Line Element Set (TLE):
1 16409U 85119B   19176.01459140  .00000031  00000-0  14128-4 0  9996
2 16409  82.5367 132.1576 0016150 113.1336 247.1528 13.84807364692942
Source of the keplerian elements: AFSPC